Volver al catálogo

RASSVET-3 21

ActivoPO
NORAD 100087·PAYLOAD·🇷🇺 Russia

Lanzado Jul 19, 2026 desde Plesetsk Cosmodrome

Loading…

Próximos Pases (próximas 24 horas)

TLE

ActualizadoSource: Space-Track

Época: Sep 14, 2026, 13:39 UTC

1 A0087U 26165E   26257.56925533 -.00371171  00000-0 -40477-2 0  9991
2 A0087  82.3009 167.6749 0008163 152.5732 207.5959 15.64444611  8957

Sigue RASSVET-3 21 en tiempo real con AllMySat

Download on the App Store